Regional Weather Roundup
Issued by NWS Grand Forks, ND

Home | Current Version | Previous Version | Text Only | Print | Product List | Glossary On
Versions: 1 2 3 4 5 6 7 8 9 10 11 12 13 14 15 16 17 18 19 20 21 22 23 24 25 26 27 28 29 30 31 32 33 34 35 36 37 38 39 40 41 42 43 44 45 46 47 48 49 50
000
ASUS43 KFGF 282131
RWRFGF
PRAIRIE TO PINES  WEATHER ROUNDUP
NATIONAL WEATHER SERVICE EASTERN NORTH DAKOTA/GRAND FORKS ND
300 PM CST FRI NOV 28 2014

 **SATELLITE DATA USED TO AUGMENT SKY COVER AT AUTOMATED STATIONS**
 *****  WEATHER ACROSS EASTERN NORTH DAKOTA  *****

CITY           SKY/WX    TMP DP  RH WIND       PRES   REMARKS
GRAND FORKS    LGT SNOW  16   9  73 SE9       29.81F WCI   4
GRAND FRKS AFB CLOUDY    14  10  85 SE8       29.79F WCI   3
GRAND FRKS NWS   N/A     14 N/A N/A E12         N/A  WCI   0
DEVILS LAKE    PTSUNNY   14   1  57 SE16      29.69F WCI  -2
FARGO          CLOUDY    18  10  71 E9        29.80F WCI   7
WAHPETON ARPT  MOCLDY    19  12  73 SE10      29.79S WCI   8
$$

 ***** WEATHER ACROSS CENTRAL AND WESTERN NORTH DAKOTA  *****

CITY           SKY/WX    TMP DP  RH WIND       PRES   REMARKS
BISMARCK       PTSUNNY   21  14  74 E9        29.63F WCI  11
MINOT          CLOUDY    14   8  77 E13       29.60F WCI   0
JAMESTOWN      CLOUDY    13   8  81 E13       29.69F WCI  -2
MINOT AFB      FLURRIES  12   9  85 SE17      29.61F WCI  -5
GARRISON         N/A     17  12  80 SE15      29.56F WCI   2
WILLISTON      MOSUNNY   25  19  78 SE7       29.49F WCI  17
DICKINSON      CLOUDY    41  31  67 SE7       29.47F
HETTINGER      CLOUDY    42  31  64 E3        29.53F
$$

 *****  OTHER AIRPORT OBSERVATIONS IN OUR AREA  *****

CITY           SKY/WX    TMP DP  RH WIND       PRES   REMARKS
WALHALLA       LGT SNOW  14  14 100 E5        29.81S WCI   6
GRAFTON AIRPOR CLOUDY    14  10  85 SE15      29.80F FOG     WCI  -1
VALLEY CITY AR CLOUDY    14  10  85 E13G18    29.74S WCI   0
CANDO          CLOUDY    14   9  79 SE16      29.70F WCI  -2
CAVALIER APRT  CLOUDY    16  10  79 SE7       29.81S FOG     WCI   6
GWINNER        PTCLDY    19  12  73 E12       29.74F WCI   7
SHEYENNE NWR     N/A     16  10  78 SE9       29.95S WCI   4
ROLLA          LGT SNOW  10   7  85 SE14      29.67F WCI  -5
 ***** THE ABOVE OBSERVATIONS ARE NON NWS ARE NOT QUALITY
       CONTROLLED AND MAY MIS-REPORT RAIN FOR SNOW...
$$

  *****  WEATHER ACROSS NORTHERN MINNESOTA  *****

CITY           SKY/WX    TMP DP  RH WIND       PRES   REMARKS
FLAG ISLAND    PTCLDY    12   5  73 E5        29.87R WCI   4
WARROAD        PTSUNNY   14   9  79 E12       29.82F WCI   0
ROSEAU         PTSUNNY   18  10  73 E15       29.82F WCI   3
HALLOCK        MOSUNNY   18  10  73 E9        29.80F WCI   6
THF RVR FALLS  CLOUDY    16  10  79 SE12      29.80S WCI   3
BAUDETTE       MOCLDY    15   7  70 E10       29.84S WCI   2
WASKISH        CLOUDY    16  10  79 CALM      29.84F
CROOKSTON      CLOUDY    16  10  79 SE9       29.82F WCI   4
STEPHEN NDAWN    N/A     18  10  73 SE12        N/A  WCI   5
GREENBUSH NDAW   N/A     18  10  73 E12         N/A  WCI   5
$$
  *****  WEATHER ACROSS CENTRAL AND WEST MINNESOTA  *****

CITY           SKY/WX    TMP DP  RH WIND       PRES   REMARKS
FOSSTON        CLOUDY    16   7  67 E7        29.80S WCI   6
BEMIDJI        CLOUDY    14   8  78 E8        29.79F WCI   2
PARK RAPIDS    CLOUDY    15   9  76 SE8       29.78F WCI   4
ELBOW LAKE     CLOUDY    17  11  80 E12       29.76F HAZE    WCI   4
WADENA         PTSUNNY   16   9  73 E9        29.78F WCI   4
DETROIT LAKES  PTSUNNY   18  12  79 SE9G16    29.78S WCI   6
MOORHEAD       MOSUNNY   18  12  79 E7        29.80F WCI   8
FERGUS FALLS   CLOUDY    18   9  68 E6        29.81S WCI   9
MORRIS MN      MOSUNNY   19  14  79 SE12      29.75S WCI   7
STAPLES        PTSUNNY   16   9  73 E6        29.81R WCI   7
$$
  *****  WEATHER ELSEWHERE ACROSS MINNESOTA  *****

CITY           SKY/WX    TMP DP  RH WIND       PRES   REMARKS
DULUTH         LGT SNOW  15   9  76 SE5       29.86F WCI   8
INTRNTL FALLS  CLOUDY    15   7  70 E9        29.88F WCI   3
ELY            LGT SNOW  18  12  79 E7        29.86F WCI   8
CLOQUET        FLURRIES  14   9  79 E6        29.85F WCI   5
WHEATON        PTSUNNY   18  12  79 E12       29.78F WCI   5
BRAINERD       CLOUDY    14   9  80 E7        29.83F WCI   4
HIBBING        CLOUDY    17   8  67 SE10      29.85F WCI   5
ALEXANDRIA     CLOUDY    16  10  77 SE12      29.76F WCI   3
SAINT CLOUD    CLOUDY    20  12  71 E5        29.83F WCI  13
MINNEAPOLIS    CLOUDY    22  15  75 SE10      29.85F WCI  11
$$

  *****  WEATHER ACROSS SOUTH DAKOTA  *****

CITY           SKY/WX    TMP DP  RH WIND       PRES   REMARKS
SIOUX FALLS    PTSUNNY   34  27  75 E12       29.66F
BROOKINGS      NOT AVBL
WATERTOWN      PTSUNNY   20  14  77 E8        29.66F WCI  10
HURON          MOSUNNY   38  25  59 SE6       29.65F
SISSETON         N/A     19  14  81 S9        29.74F WCI   8
ABERDEEN       MOSUNNY   23  15  71 NE10      29.70F WCI  12
MITCHELL       SUNNY     41  28  60 E3        29.66S
PIERRE         SUNNY     41  25  53 S5        29.62S
MOBRIDGE       MOSUNNY   27  20  75 SE12      29.59F WCI  17
RAPID CITY     MOSUNNY   63  29  27 SW7       29.56F
$$

  *****  SOME WEATHER IN NEARBY STATES *****

CITY           SKY/WX    TMP DP  RH WIND       PRES   REMARKS
GLASGOW MT     MOSUNNY   27  23  85 E10       29.40F FOG     WCI  17
GREAT FALLS MT PTSUNNY   54  33  45 SW31G40   29.39F
CHEYENNE WY    PTSUNNY   59  10  14 W20G29    29.83F
SCOTTSBLUFF NE CLOUDY    65  27  23 NW9       29.72F
OMAHA NE       MOSUNNY   51  31  46 S17       29.71F
DES MOINES IA  MOSUNNY   42  30  62 S13       29.79F
DAVENPORT IA   CLOUDY    34  25  69 S8        29.92F
CHICAGO IL     CLOUDY    30  22  72 S15       29.99F WCI  19
EAU CLAIRE WI  CLOUDY    22  14  71 E7        29.88R WCI  13
LA CROSSE WI   PTSUNNY   28  17  63 SE6       29.87F WCI  22
$$

  *****  SOME NATIONAL WEATHER *****

CITY           SKY/WX    TMP DP  RH WIND       PRES   REMARKS
LA GUARDIA NY  PTCLDY    34  16  47 NW15G25   30.19R WCI  24
RALEIGH NC     PTCLDY    43  19  38 CALM      30.29F
ATLANTA GA     SUNNY     50  11  20 NW5       30.29F
NEW ORLEANS LA MOSUNNY   61  41  47 VRB7      30.30F
OKLAHOMA CITY  MOSUNNY   68  38  33 S20G28    29.90F
ALBUQUERQUE NM MOSUNNY   59  21  23 S9        30.14F
SALT LAKE CITY PTSUNNY   65  11  12 S22G35    29.88F
LOS ANGELES CA SUNNY     76  45  33 W8        29.93F
BOISE ID       MOSUNNY   64  26  23 SE9       29.72F
SEATTLE WA     RAIN      42  39  89 N17G23    29.48R FOG
$$

*** WEATHER ACROSS MANITOBA...SASKATCHEWAN AND ONTARIO ***
                ***ONTARIO***

CITY           SKY/WX    TMP DP  RH WIND       PRES   REMARKS
GERALDTON      PTCLDY     5   0  78 SW3       30.00F
THUNDER BAY    MOCLDY    16   9  73 E5        30.01F WCI   9
SIOUX LOOKOUT  MOCLDY     9  -4  56 E3        29.95F
TORONTO        CLOUDY    25  14  63 W12       30.20S WCI  14
BIG TROUT LK   CLEAR    -11 -17  77 W5        30.05R WCI -23
PICKLE LAKE    CLOUDY     1  -8  66 CALM      29.98R
DRYDEN         NOT AVBL
KENORA         MOCLDY    10   0  61 SE6       29.87F WCI   1
$$
                *** MANITOBA***

CITY           SKY/WX    TMP DP  RH WIND       PRES   REMARKS
BRANDON        LGT SNOW   7   3  85 E17       29.73F DRFTSNOWWCI -12
DAUPHIN        LGT SNOW   7   3  85 E13       29.81R WCI  -9
ISLAND LAKE    CLOUDY   -11 -20  64 CALM      30.05F
PILOT MOUND      N/A     10   7  85 E13         N/A  WCI  -5
THE PAS        LGT SNOW  -6 -13  71 E6        29.97F VSB 3/4 WCI -18
THOMPSON       MOCLDY   -11 -18  70 CALM      30.05F
WINNIPEG       CLOUDY    12   3  67 E10       29.84F WCI  -1
LYNN LAKE        N/A    -11 -17  77 NW3       29.99F
CHURCHILL      PTCLDY   -11 -18  70 NW13      30.00  WCI -32
GILLAM         PTCLDY   -13 -20  70 W5        30.05F WCI -25
$$
                ***SASKATCHEWAN***

CITY           SKY/WX    TMP DP  RH WIND       PRES   REMARKS
ESTEVAN        LGT SNOW  10   5  79 SE21G28   29.52  DRFTSNOWWCI  -9
KINDERSLEY     LGT SNOW   3  -2  78 N17       29.58R DRFTSNOWWCI -17
LLOYDMINSTER   PTSUNNY   -4  -9  77 N9        29.68  WCI -20
PRINCE ALBERT  FLURRIES  -2  -8  78 NE10      29.75R WCI -19
REGINA         LGT SNOW  10   7  85 SE17G25   29.51S BLWGSNOWWCI  -7
YORKTON        LGT SNOW   3   0  85 E16G22    29.65F WCI -16
N. BATTLEFORD  FLURRIES   1  -4  78 NE10      29.69R WCI -14
LA RONGE       LGT SNOW  -8 -13  77 NE12      29.94F WCI -27
SASKATOON      LGT SNOW   5   0  78 E15G23    29.63S DRFTSNOWWCI -13
SWIFT CURRENT  CLOUDY    18  16  93 NW25G31   29.44R FOG     WCI  -1
$$
NOTE: THESE ARE AUTOMATED STATIONS WITH LIMITED QUALITY CONTROL
      "FAIR" INDICATES FEW OR NO CLOUDS BELOW 12,000 FEET WITH NO
      SIGNIFICANT WEATHER AND/OR OBSTRUCTIONS TO VISIBILITY.
      SKY/WX - SKY CONDITION AND SIGNIFICANT WEATHER.
      TMP - AIR TEMPERATURE.    DP   - DEWPOINT TEMPERATURE.
      RH  - RELATIVE HUMIDITY.  PRES - PRESSURE.
      HX  - HEAT INDEX.         WCI  - WIND CHILL INDEX.
$


USA.gov is the U.S. government's official web portal to all federal, state and local government web resources and services.